DW4070 Weather Reports


Display with metric or nautical units.
time (UTC)temp
F
wind
direction
speed
MPH
gust
MPH
rain 1hr
in
rain 24hr
in
rain mn
in
humidity
%
barometer
mb
20260905021532 67 282 0.0 0.0 0.00 0.36 0.35 94 1011.6
20260905020041 67 282 0.0 0.0 0.00 0.36 0.35 93 1011.7
20260905014525 67 282 0.0 0.0 0.00 0.36 0.35 93 1011.6
20260905013031 67 282 0.0 0.0 0.00 0.36 0.35 93 1011.7
20260905011532 68 282 0.0 0.0 0.00 0.36 0.35 93 1011.6
20260905010021 68 282 0.0 0.0 0.00 0.36 0.35 93 1011.8
20260905004520 68 282 0.0 0.0 0.00 0.36 0.35 92 1011.6
20260905003028 68 282 0.0 0.0 0.00 0.36 0.35 91 1011.5
20260905001520 69 282 0.0 0.0 0.00 0.36 0.35 90 1011.4
20260905000019 70 282 0.0 0.0 0.00 0.36 0.35 90 1011.4
20260904234520 71 282 0.0 0.0 0.00 0.36 0.35 89 1011.3
20260904233017 71 282 0.0 0.0 0.00 0.36 0.35 88 1011.3
20260904231516 72 282 0.0 0.0 0.00 0.36 0.35 87 1011.1
20260904230016 72 282 0.0 0.0 0.00 0.36 0.35 85 1011.1
20260904224516 73 282 0.0 0.0 0.00 0.36 0.35 84 1011.2
20260904223015 74 282 0.0 0.0 0.00 0.36 0.35 81 1011.2
20260904221515 74 282 0.0 0.0 0.00 0.36 0.35 81 1011.1
20260904220015 75 282 0.0 0.0 0.00 0.36 0.35 82 1011.0
20260904214514 76 282 0.0 0.0 0.00 0.36 0.35 82 1011.1
20260904213015 76 282 0.0 0.0 0.00 0.36 0.35 80 1011.0
20260904211512 77 282 0.0 0.0 0.00 0.36 0.35 77 1010.9
20260904210013 78 282 0.0 0.0 0.00 0.36 0.35 74 1011.0
20260904204512 79 282 0.0 2.0 0.00 0.36 0.35 66 1011.1
20260904203016 79 282 0.0 0.0 0.00 0.36 0.35 69 1011.2
20260904201511 79 282 0.0 0.0 0.00 0.36 0.35 66 1011.3
20260904200015 80 282 0.0 0.0 0.00 0.36 0.35 65 1011.4
20260904194509 81 283 0.0 2.0 0.00 0.36 0.35 64 1011.2
20260904193011 82 283 0.0 0.0 0.00 0.36 0.35 66 1011.5
20260904191509 83 283 0.0 2.0 0.00 0.36 0.35 60 1011.7
20260904190007 83 283 0.0 2.0 0.00 0.36 0.35 67 1011.8
20260904184507 83 282 0.0 2.0 0.00 0.36 0.35 66 1011.8
20260904183005 84 283 0.0 3.0 0.00 0.36 0.35 56 1011.8
20260904180053 84 283 0.0 3.0 0.00 0.36 0.35 63 1011.7
20260904174554 83 283 0.0 2.0 0.00 0.36 0.35 66 1011.9
20260904173049 83 283 0.0 3.0 0.00 0.36 0.35 62 1011.8
20260904171547 83 283 0.0 2.0 0.00 0.36 0.35 69 1011.8
20260904170045 83 283 0.0 4.0 0.00 0.36 0.35 62 1011.9
20260904164547 82 283 0.0 4.0 0.00 0.36 0.35 64 1012.0
20260904163042 82 283 1.0 3.0 0.00 0.36 0.35 66 1011.9
20260904161540 81 283 0.0 4.0 0.00 0.36 0.35 72 1012.0
20260904160038 80 282 0.0 2.0 0.00 0.36 0.35 78 1012.0
20260904154544 79 283 0.0 5.0 0.00 0.36 0.35 77 1012.4
20260904153032 79 283 0.0 4.0 0.00 0.36 0.35 79 1012.4
20260904151527 77 283 0.0 2.0 0.00 0.36 0.35 84 1012.4
20260904150024 75 282 0.0 0.0 0.00 0.36 0.35 91 1012.5
20260904144521 75 282 0.0 0.0 0.00 0.36 0.35 90 1012.4
20260904143030 74 282 0.0 0.0 0.00 0.36 0.35 93 1012.3
20260904141518 73 282 0.0 3.0 0.00 0.36 0.35 95 1012.4
20260904140032 73 282 0.0 3.0 0.00 0.36 0.35 97 1012.4
20260904134513 72 282 0.0 0.0 0.00 0.36 0.35 97 1012.2
20260904133013 72 282 0.0 2.0 0.00 0.36 0.35 97 1012.2
20260904131512 71 282 0.0 0.0 0.00 0.36 0.35 97 1012.2
20260904130011 71 282 0.0 0.0 0.00 0.36 0.35 97 1012.4
20260904124514 71 282 0.0 0.0 0.00 0.36 0.35 97 1012.3
20260904123011 70 282 0.0 0.0 0.00 0.36 0.35 97 1012.4
20260904121515 70 282 0.0 0.0 0.00 0.36 0.35 97 1012.3
20260904120009 69 282 0.0 0.0 0.00 0.36 0.35 97 1012.4
20260904114509 69 282 0.0 0.0 0.00 0.36 0.35 97 1012.5
20260904113008 69 282 0.0 0.0 0.00 0.36 0.35 96 1012.1
20260904111507 69 282 0.0 0.0 0.00 0.36 0.35 96 1012.0
20260904110006 69 282 0.0 0.0 0.00 0.36 0.35 96 1012.1
20260904104505 69 282 0.0 0.0 0.00 0.36 0.35 96 1011.9
20260904103013 69 282 0.0 0.0 0.00 0.36 0.35 96 1011.7
20260904101503 70 282 0.0 0.0 0.00 0.36 0.35 96 1011.7
20260904100059 70 282 0.0 0.0 0.00 0.36 0.35 96 1011.3
20260904094603 71 282 0.0 0.0 0.00 0.36 0.35 96 1011.2
20260904093100 71 282 0.0 0.0 0.00 0.36 0.35 96 1011.0
20260904091556 71 282 0.0 0.0 0.00 0.36 0.35 96 1011.1
20260904084554 71 282 0.0 0.0 0.02 0.36 0.35 96 1011.0
20260904083056 71 282 0.0 0.0 0.03 0.36 0.35 97 1011.0
20260904081552 72 282 0.0 0.0 0.05 0.36 0.35 96 1010.5
20260904080051 72 282 0.0 0.0 0.07 0.35 0.34 96 1010.9
20260904074551 72 282 0.0 0.0 0.10 0.36 0.33 96 1011.5
20260904073050 72 282 0.0 0.0 0.14 0.35 0.32 97 1011.3
20260904071603 72 282 0.0 0.0 0.15 0.33 0.30 96 1010.9
20260904070048 72 282 0.0 0.0 0.14 0.30 0.27 96 1010.8
20260904064546 72 282 0.0 0.0 0.12 0.27 0.23 96 1011.2
20260904063044 72 282 0.0 0.0 0.11 0.22 0.18 96 1011.4
20260904061544 72 282 0.0 0.0 0.11 0.18 0.14 96 1011.6
20260904060041 72 282 0.0 0.0 0.10 0.17 0.13 96 1011.7
20260904054542 72 282 0.0 0.0 0.10 0.25 0.11 96 1012.1
20260904053042 72 282 0.0 0.0 0.07 0.21 0.07 96 1012.1
20260904051538 72 282 0.0 0.0 0.03 0.17 0.03 96 1012.1
20260904050040 72 282 0.0 0.0 0.03 0.17 0.03 96 1012.2
20260904044536 72 282 0.0 0.0 0.01 0.16 0.01 96 1012.2
20260904043035 72 282 0.0 0.0 0.01 0.15 0.00 96 1012.6
20260904041534 72 282 0.0 0.0 0.01 0.15 0.00 96 1012.5
20260904040037 72 282 0.0 0.0 0.01 0.15 0.00 96 1012.5
20260904034534 72 282 0.0 1.0 0.01 0.15 0.15 96 1012.5
20260904033030 72 282 0.0 0.0 0.00 0.14 0.14 96 1012.7
20260904031530 72 282 0.0 0.0 0.00 0.14 0.14 96 1012.9
20260904030029 72 282 0.0 0.0 0.00 0.14 0.14 96 1012.7
20260904024530 72 282 0.0 0.0 0.00 0.14 0.14 96 1012.9
20260904023028 72 282 0.0 0.0 0.00 0.14 0.14 96 1013.3